Location: Peach Mountain Observatory
(42.3967°N, 83.9367°W)
Time: 10:59:47
(UTC-04:00)

deb Explorer IX - Pass Details

Date: 22 January 2020
Orbit: 548 x 1100 km, 38.8° (Epoch: 08 April)

Event Time Altitude Azimuth Distance (km) Brightness Sun altitude
Rises 05:47:47 0° 274° (W) 3,751 - -23.9°
Reaches altitude 10° 05:51:48 10° 253° (WSW) 2,694 - -23.2°
Maximum altitude 05:55:16 15° 220° (SW) 2,241 - -22.6°
Exits shadow 05:56:03 15° 212° (SSW) 2,237 ? -22.4°
Drops below altitude 10° 05:58:31 10° 187° (S) 2,477 ? -22.0°
Sets 06:01:59 0° 164° (SSE) 3,283 ? -21.3°
